EW8796 Weather Reports


Display with metric or nautical units.
time (UTC)temp
F
wind
direction
speed
MPH
gust
MPH
rain 1hr
in
rain 24hr
in
rain mn
in
humidity
%
barometer
mb
20260504050017 51 0.0 0.0 0.00 0.00 0.00 63 1003.9
20260504043017 53 0.0 0.0 0.00 0.00 0.00 54 1004.2
20260504040017 55 270 1.0 3.0 0.00 0.00 0.00 49 1004.4
20260504033037 58 0.0 1.0 0.00 0.00 0.00 45 1004.7
20260504030017 60 0.0 4.0 0.00 0.00 0.00 40 1004.9
20260504023058 63 270 3.0 10.0 0.00 0.00 0.00 37 1004.8
20260504020017 65 248 3.0 8.0 0.00 0.00 0.00 32 1004.6
20260504013017 67 270 3.0 6.0 0.00 0.00 0.00 31 1004.2
20260504010017 69 270 3.0 11.0 0.00 0.00 0.00 29 1003.9
20260504003017 71 270 6.0 18.0 0.00 0.00 0.00 27 1004.0
20260504000038 73 270 7.0 20.0 0.00 0.00 0.00 25 1003.9
20260503233017 75 270 4.0 17.0 0.00 0.00 0.00 25 1003.9
20260503230017 76 293 4.0 17.0 0.00 0.00 0.00 24 1003.9
20260503223017 77 270 6.0 22.0 0.00 0.00 0.00 25 1003.8
20260503220017 77 293 7.0 25.0 0.00 0.00 0.00 25 1003.8
20260503213036 78 293 6.0 22.0 0.00 0.00 0.00 25 1003.8
20260503210037 78 315 6.0 18.0 0.00 0.00 0.00 27 1003.9
20260503203017 78 293 8.0 29.0 0.00 0.00 0.00 29 1004.1
20260503200017 78 293 8.0 25.0 0.00 0.00 0.00 27 1004.2
20260503193017 77 293 7.0 22.0 0.00 0.00 0.00 28 1004.4
20260503190017 76 270 7.0 20.0 0.00 0.00 0.00 31 1004.4
20260503183017 75 270 7.0 20.0 0.00 0.00 0.00 31 1004.6
20260503180037 73 225 7.0 18.0 0.00 0.00 0.00 36 1004.9
20260503173017 70 225 8.0 24.0 0.00 0.00 0.00 39 1005.2
20260503170107 68 225 8.0 22.0 0.00 0.00 0.00 39 1005.5
20260503053017 48 0.0 3.0 0.00 0.00 0.00 56 1012.0